O3B FM6 (40081 NORAD) Tracking and Keplerian Element Data

This shows tracking and keplerian element data for the satellite.

Feedback or suggestion? Click here.




ElementValue
Catalog40081
NameO3B FM6
Epoch Orbit10438
Epoch Day89.52203002
Epoch Year2020
RAAN17.698
Inclination0.0476
Eccentricity0.0002613
Argument of Perigee351.5193
Mean Anonmoly350.7874
Mean Motion5.00114952
Decay Rate-1.9E-07
L11 40081U 14038C 20089.52203002 -.00000019 00000-0 00000-0 0 9993
L22 40081 0.0476 17.6980 0002613 351.5193 350.7874 5.00114952104389

Live tracking and technical data element details for O3B FM6 (NORAD 40081). O3B FM6 can be tracked NOW for your location showing map with azimuth and elevation plus other details from your city location.

Track the satellite on the map from your city or location and see movement details for azimuth, elevation, latitude, longitude, range, height, and movement on the map or in text.







IsCatalogInMostPopularTable: catalog: 40081, numindb: 358
Update: records affected: 1



GetName: 40081 O3B FM6

Hit Count: updated at: Thu, 02 Apr 2020 03:25:36 GMT